Location: Wavehorne
(51.0500°N, 0.8333°E)
Time: 17:19:28
(UTC+00:00)

Cosmos 1242 Rocket - Pass Details

Date: 20 June 2021
Orbit: 446 x 483 km, 81.2° (Epoch: 04 August)

Event Time Altitude Azimuth Distance (km) Brightness Sun altitude
Rises 01:52:14 0° 340° (NNW) 2,524 6.9 -11.4°
Reaches altitude 10° 01:54:26 10° 331° (NNW) 1,648 5.7 -11.2°
Maximum altitude 01:57:44 35° 265° (W) 795 3.4 -11.0°
Enters shadow 02:00:05 17° 207° (SSW) 1,298 4.0 -10.8°
